Location: Kampung Segan
(3.1399°N, 113.1002°E)
Time: 13:42:19
(UTC+00:00)

MOS 1-B Rocket - Pass Details

Date: 14 October 2025
Orbit: 891 x 1603 km, 99.0° (Epoch: 16 November)

Event Time Altitude Azimuth Distance (km) Brightness Sun altitude
Rises 18:40:47 0° 49° (NE) 4,652 7.8 -53.0°
Reaches altitude 10° 18:45:00 10° 68° (ENE) 3,749 7.4 -52.0°
Maximum altitude 18:50:17 17° 104° (ESE) 3,274 7.1 -50.7°
Drops below altitude 10° 18:55:36 10° 140° (SE) 3,817 7.4 -49.4°
Sets 18:59:53 0° 158° (SSE) 4,776 7.9 -48.3°
